Content
SEND FEEDBACK

Daily
Averages
Monthly
Summary
United States of America

WARTRACE, TENNESSEE


Home > North America > United States > Tennessee
Elevation: 775 feet     Latitude: 35 29N     Longitude: 086 27W

WEATHER
 
SELECT A DAY
Number of Records: 56,108;   Date Range: 9/2/10 - 9/15/14
 
SHARE

PRINT THIS DATA

[ ← Previous Day ]
WEATHER ALMANAC - AUGUST 15, 2014
[ Next Day → ]
[ °C ]   °F
Weather ElementAverageHighLow
Temperature70.9 °F84.2 °F (12:35 pm)55.4 °F (5:15 am)
Dewpoint56.6 °F60.8 °F (7:55 am)51.8 °F (6:15 am)
Humidity65.1 %94 % (1:55 am)35 % (2:35 pm)
Barometer30.06 in30.11 in (9:55 am)30.02 in (5:55 pm)
Wind Speed1.8 mph9.2 mph (3:15 pm)
Weather ElementAverage
Visibility10 mi
Wind DirectionNNE (27.4 °)

Weather ElementTotal
Precipitation---
Cooling Degree Days4.8 (Base 65)
Growing Degree Days19.8 (Base 50)
Averaged from 68 records on August 15, 2014
WEATHER CONDITIONS BREAKOUT
WIND DIRECTION BREAKOUT
WEATHER BY HOUR - AUGUST 15, 2014
[ °C ]   °F
Local TimeTemperatureDewpointHumidityBarometerVisibilityWind DirectionWind SpeedGust SpeedPrecipitationEventsConditions
12:35 AM59.0 °F55.4 °F88 %30.06 in10.0 miCalmClear
12:55 AM59.0 °F55.4 °F88 %30.06 in10.0 miCalmClear
1:15 AM59.0 °F55.4 °F88 %30.05 in10.0 miCalmClear
1:35 AM57.2 °F53.6 °F88 %30.05 in10.0 miCalmClear
1:55 AM57.2 °F55.4 °F94 %30.05 in10.0 miCalmClear
2:15 AM57.2 °F55.4 °F94 %30.05 in10.0 miCalmClear
2:35 AM57.2 °F53.6 °F88 %30.05 in10.0 miCalmClear
2:55 AM57.2 °F53.6 °F88 %30.05 in10.0 miCalmClear
3:15 AM57.2 °F53.6 °F88 %30.05 in10.0 miCalmClear
3:35 AM57.2 °F53.6 °F88 %30.05 in10.0 miCalmClear
3:55 AM57.2 °F53.6 °F88 %30.05 in10.0 miCalmClear
4:15 AM57.2 °F53.6 °F88 %30.05 in10.0 miCalmClear
4:35 AM57.2 °F53.6 °F88 %30.06 in10.0 miCalmClear
4:55 AM57.2 °F53.6 °F88 %30.06 in10.0 miCalmClear
5:15 AM55.4 °F53.6 °F94 %30.06 in10.0 miCalmClear
5:35 AM55.4 °F53.6 °F94 %30.07 in10.0 miCalmClear
5:55 AM55.4 °F53.6 °F94 %30.07 in10.0 miCalmClear
6:15 AM55.4 °F51.8 °F88 %30.08 in10.0 miCalmClear
6:35 AM55.4 °F53.6 °F94 %30.08 in10.0 miCalmClear
6:55 AM57.2 °F53.6 °F88 %30.08 in10.0 miCalmClear
7:15 AM60.8 °F55.4 °F82 %30.09 in9.0 miCalmClear
7:35 AM64.4 °F59.0 °F83 %30.09 in10.0 miCalmClear
7:55 AM66.2 °F60.8 °F83 %30.10 in10.0 miCalmClear
8:15 AM69.8 °F60.8 °F73 %30.10 in10.0 miCalmClear
8:35 AM69.8 °F60.8 °F73 %30.10 in10.0 miCalmClear
8:55 AM73.4 °F60.8 °F65 %30.10 in10.0 miCalmClear
9:15 AM75.2 °F60.8 °F61 %30.10 in10.0 miCalmClear
9:35 AM75.2 °F59.0 °F57 %30.10 in10.0 miCalmClear
9:55 AM78.8 °F57.2 °F47 %30.11 in10.0 miVariable3.5 mphClear
10:15 AM78.8 °F59.0 °F51 %30.11 in10.0 miEast (100°)3.5 mphClear
10:35 AM80.6 °F57.2 °F45 %30.10 in10.0 miCalmClear
10:55 AM80.6 °F57.2 °F45 %30.10 in10.0 miCalmClear
11:15 AM80.6 °F57.2 °F45 %30.10 in10.0 miEast (80°)5.8 mphPartly Cloudy
11:35 AM80.6 °F55.4 °F42 %30.09 in10.0 miSSE (150°)3.5 mphMostly Cloudy
11:55 AM80.6 °F55.4 °F42 %30.08 in10.0 miCalmMostly Cloudy
12:15 PM82.4 °F57.2 °F42 %30.07 in10.0 miVariable3.5 mphScattered Clouds
12:35 PM84.2 °F55.4 °F37 %30.07 in10.0 miNW (320°)4.6 mphClear
12:55 PM82.4 °F55.4 °F39 %30.07 in10.0 miNE (50°)3.5 mphClear
1:15 PM84.2 °F55.4 °F37 %30.06 in10.0 miNNE (20°)4.6 mphPartly Cloudy
1:35 PM80.6 °F55.4 °F42 %30.06 in10.0 miNorth (10°)3.5 mphScattered Clouds
1:55 PM84.2 °F55.4 °F37 %30.06 in10.0 miVariable6.9 mphClear
2:15 PM84.2 °F55.4 °F37 %30.05 in10.0 miNNE (30°)4.6 mphPartly Cloudy
2:35 PM84.2 °F53.6 °F35 %30.04 in10.0 miCalmClear
3:15 PM84.2 °F55.4 °F37 %30.04 in10.0 miNNW (330°)9.2 mphPartly Cloudy
3:35 PM84.2 °F55.4 °F37 %30.04 in10.0 miNorth (360°)9.2 mphClear
3:55 PM84.2 °F55.4 °F37 %30.03 in10.0 miVariable5.8 mphPartly Cloudy
4:15 PM84.2 °F55.4 °F37 %30.03 in10.0 miNNE (30°)8.1 mphClear
4:35 PM84.2 °F55.4 °F37 %30.03 in10.0 miENE (60°)3.5 mphClear
4:55 PM84.2 °F55.4 °F37 %30.03 in10.0 miVariable5.8 mphClear
5:15 PM82.4 °F55.4 °F39 %30.03 in10.0 miNE (50°)5.8 mphClear
5:35 PM82.4 °F55.4 °F39 %30.03 in10.0 miEast (80°)5.8 mphClear
5:55 PM82.4 °F55.4 °F39 %30.02 in10.0 miNNE (30°)4.6 mphClear
6:15 PM82.4 °F55.4 °F39 %30.03 in10.0 miNNE (30°)5.8 mphClear
6:35 PM80.6 °F57.2 °F45 %30.03 in10.0 miNE (40°)4.6 mphClear
6:55 PM80.6 °F57.2 °F45 %30.03 in10.0 miNE (40°)4.6 mphClear
7:15 PM78.8 °F59.0 °F51 %30.04 in10.0 miNE (50°)3.5 mphClear
7:35 PM78.8 °F59.0 °F51 %30.03 in10.0 miCalmClear
7:55 PM78.8 °F60.8 °F54 %30.03 in10.0 miCalmClear
8:15 PM71.6 °F60.8 °F69 %30.04 in10.0 miCalmClear
8:35 PM69.8 °F60.8 °F73 %30.04 in10.0 miCalmClear
9:15 PM69.8 °F60.8 °F73 %30.05 in10.0 miCalmClear
9:35 PM66.2 °F60.8 °F83 %30.05 in10.0 miCalmClear
9:55 PM66.2 °F60.8 °F83 %30.05 in10.0 miCalmClear
10:15 PM64.4 °F60.8 °F88 %30.05 in10.0 miCalmClear
10:35 PM66.2 °F60.8 °F83 %30.05 in10.0 miCalmClear
11:15 PM64.4 °F59.0 °F83 %30.05 in10.0 miCalmClear
11:35 PM64.4 °F59.0 °F83 %30.04 in10.0 miCalmClear
11:55 PM64.4 °F60.8 °F88 %30.04 in10.0 miCalm
Hourly data recorded from KTHA, located miles away from Wartrace, Tennessee







STORIES FROM OUR PARTNERS